Wind_Speed
20 20 21 22 21 21 21 21 21 21 21 22 21 20 21 21 20 20 19 19 20 20 20 20 20 20 20 20 20 20 21 21 22 22 22 23 23 22 22 21 21 21 20
20 20 21 22 21 21 22 22 23 22 22 23 22 22 22 21 21 21 21 21 22 21 21 21 22 21 21 21 22 22 22 22 23 24 23 24 24 24 24 24 23 23 22
22 22 22 22 22 23 24 24 24 24 23 23 23 23 23 23 23 23 23 23 23 23 23 22 22 22 22 22 22 22 22 23 23 24 25 25 26 26 25 25 25 25 24
24 24 24 24 24 24 24 25 25 25 25 25 24 24 24 23 23 23 24 24 24 24 24 24 23 23 23 23 23 23 24 24 24 24 25 26 26 27 28 27 27 27 26
25 25 25 25 25 26 26 26 26 26 26 25 25 25 25 25 25 25 25 25 25 26 25 25 25 25 24 24 24 24 25 25 25 25 25 26 27 28 29 29 29 29 29
26 26 26 27 27 27 27 28 28 27 27 27 26 26 26 26 26 25 26 27 27 27 27 26 26 26 26 26 26 26 26 26 27 26 26 26 27 28 29 30 31 31 31
27 27 28 28 29 29 27 28 28 27 27 27 27 27 27 28 28 27 27 27 28 28 28 28 28 27 27 27 28 28 27 27 27 27 27 28 28 29 29 30 31 31 32
27 28 29 30 29 30 29 28 28 28 28 28 28 28 28 28 28 28 28 28 27 28 28 28 28 28 28 28 29 29 28 27 28 29 29 29 30 30 31 30 30 32 32
27 28 30 31 31 31 30 31 30 30 30 30 30 30 29 28 27 27 28 28 28 29 28 28 28 28 28 28 28 30 30 29 29 30 30 30 30 30 31 31 31 32 33
29 30 31 31 32 32 32 32 32 31 31 31 31 31 31 30 28 27 28 28 28 28 29 28 28 28 29 29 29 30 31 31 30 30 31 31 32 31 32 32 32 33 34
31 31 31 32 32 31 32 32 32 32 31 31 31 30 30 30 30 29 28 28 28 28 29 29 29 29 29 30 29 30 31 31 31 31 31 31 32 32 32 32 32 33 33
31 31 31 32 32 31 32 33 33 32 31 31 31 31 30 30 30 30 29 29 29 29 29 29 28 28 28 29 30 30 30 30 30 31 31 31 31 31 31 32 33 32 32
29 29 30 30 31 31 32 32 32 31 31 32 32 32 31 31 31 31 31 30 30 30 29 29 29 29 28 29 29 30 30 30 30 30 30 30 30 30 31 32 32 32 32
27 28 29 29 30 30 30 31 31 31 30 30 30 30 31 31 31 31 31 30 30 29 29 29 29 30 29 29 29 30 30 31 30 30 30 30 29 29 30 30 30 30 31
26 26 27 27 28 28 28 28 28 28 28 28 28 29 29 30 30 30 30 30 30 29 28 28 28 29 29 28 29 29 29 29 29 30 30 29 29 29 29 30 30 30 30
25 25 25 25 25 25 25 26 27 27 27 27 27 27 27 27 28 29 30 29 29 28 28 27 26 27 26 27 27 27 27 28 27 28 28 28 27 27 28 28 29 29 29
24 25 24 24 23 23 24 24 24 24 25 25 25 25 25 26 26 27 27 27 27 26 26 26 25 25 25 25 25 24 24 25 25 25 25 25 25 25 25 25 25 26 26
22 22 22 22 22 22 22 22 22 22 22 23 23 23 23 24 24 24 24 24 24 24 24 23 22 22 22 22 22 22 22 22 21 21 21 20 21 20 21 21 21 22 23
21 21 21 21 21 20 20 21 20 20 19 20 20 21 21 20 20 20 21 21 21 21 21 20 20 19 19 20 20 20 19 19 18 18 18 18 18 18 19 20 20 21 22
20 20 20 19 19 19 19 18 18 17 17 17 17 16 17 17 16 17 18 18 18 18 18 18 17 17 17 17 17 17 17 17 17 17 17 17 17 18 19 19 19 19 20
19 19 18 18 17 17 17 16 15 15 15 15 15 14 14 14 14 14 15 15 15 15 14 15 14 13 13 13 13 13 14 14 15 15 15 16 16 16 17 17 17 18 19
17 17 16 16 15 15 14 13 13 13 13 13 12 11 11 11 11 11 11 12 12 12 12 11 11 10 10 10 10 10 11 11 11 12 13 13 14 15 16 16 17 17 18
15 14 14 13 13 12 11 10 10 10 10 9 9 9 9 8 8 8 7 8 8 9 8 8 8 8 8 7 8 9 10 10 10 11 12 12 12 13 14 15 15 16 16
12 12 11 11 10 9 9 8 8 8 7 7 6 6 6 6 5 5 4 4 5 5 5 5 6 6 6 7 8 9 9 10 10 10 10 10 10 11 12 13 13 14 14
10 10 10 9 8 7 7 7 6 5 5 4 4 4 3 3 2 2 2 2 3 4 4 4 4 3 3 5 6 7 8 8 8 9 8 9 9 10 11 12 12 12 13
8 9 8 8 7 7 6 6 5 5 4 4 4 3 2 0 1 2 3 3 3 3 2 2 1 1 2 3 4 5 6 7 7 7 8 8 9 9 10 11 11 12 14
Wind_Direction
271 269 269 269 268 268 266 265 266 266 268 270 270 272 270 269 269 267 264 264 266 269 269 270 270 270 269 267 264 264 262 258 255 253 253 251 250 250 250 252 252 251 252
273 272 271 271 271 270 268 266 267 269 271 270 271 272 271 270 270 270 268 266 267 269 271 269 269 269 269 268 267 266 264 261 259 256 255 254 252 252 252 252 252 251 252
275 276 276 274 273 273 272 271 272 272 274 273 273 273 273 272 271 270 269 268 268 270 271 270 270 270 270 270 268 269 269 265 262 260 256 254 255 255 255 254 254 254 255
276 274 275 275 276 275 274 273 273 273 274 274 275 275 275 273 270 270 269 269 268 269 270 269 270 271 271 271 270 270 270 268 267 263 260 257 257 257 256 255 255 257 258
276 275 275 276 277 276 274 273 273 274 274 275 276 275 274 274 273 270 269 270 270 269 270 270 270 270 270 270 270 271 271 270 271 269 266 262 259 259 256 256 257 258 259
276 274 274 276 276 277 276 274 273 273 274 275 275 275 274 272 272 271 270 270 270 270 272 271 270 269 270 269 268 270 272 272 271 270 268 265 264 262 261 261 261 261 261
276 274 275 276 276 277 276 274 274 274 274 275 275 275 275 272 271 270 271 271 270 271 272 273 271 270 270 270 268 268 270 272 271 270 267 267 267 266 266 266 264 263 262
276 275 274 275 275 276 276 275 276 275 275 275 275 274 273 274 273 271 271 272 272 272 273 273 274 273 271 269 268 267 269 271 270 268 268 268 269 269 267 268 266 264 263
278 276 275 275 275 275 276 276 275 275 275 275 275 275 275 274 273 272 273 274 274 273 273 272 272 275 273 271 269 268 270 271 270 270 269 269 269 268 266 267 268 267 266
281 280 278 276 276 276 276 275 274 275 275 274 274 275 275 275 274 272 272 273 272 273 274 272 272 273 273 274 272 271 270 270 270 271 271 270 268 267 267 268 269 268 268
284 283 280 278 278 277 276 276 275 275 275 274 273 274 274 274 275 273 273 273 273 272 273 273 272 273 273 274 274 273 272 271 271 271 272 272 271 269 270 269 269 270 269
285 284 283 280 279 277 277 276 274 273 273 273 273 273 273 273 273 274 273 272 273 274 273 274 273 273 275 275 275 275 275 274 272 272 273 273 272 270 271 271 270 271 271
285 286 285 283 282 280 278 276 274 273 272 272 272 272 272 271 270 271 271 272 272 274 275 275 274 274 276 278 277 277 276 275 273 273 273 273 272 271 270 271 273 272 272
288 289 286 285 284 283 281 277 273 271 272 273 272 271 271 270 269 269 270 270 272 273 274 275 275 276 277 277 277 276 275 275 275 274 274 275 273 271 272 273 276 276 272
290 290 288 288 286 284 282 277 274 273 273 273 273 272 272 270 268 268 268 268 270 272 274 275 276 277 276 276 276 276 274 273 274 275 275 276 275 273 274 275 278 278 275
291 291 291 290 288 287 284 279 276 275 275 274 272 273 273 271 269 268 268 268 269 272 273 274 275 278 279 278 276 277 275 273 273 273 274 275 276 276 277 278 279 279 278
293 292 293 291 290 289 288 285 280 276 276 276 275 274 274 273 271 270 268 266 267 269 271 271 273 276 278 278 277 277 278 277 275 276 277 277 277 277 278 279 280 280 280
296 295 295 295 292 292 291 289 285 282 279 277 276 276 275 274 272 269 267 266 265 266 268 269 272 275 277 278 278 278 279 282 278 276 277 277 278 279 280 280 282 284 283
298 299 299 298 296 295 294 292 289 286 283 277 275 275 274 274 272 270 268 265 263 264 267 269 271 274 275 276 276 278 278 278 278 277 279 279 280 283 284 284 285 285 286
299 301 301 300 299 298 297 295 292 288 284 281 279 276 274 272 273 270 266 262 260 262 264 267 269 269 271 274 275 279 277 278 279 278 281 280 281 285 286 285 286 286 286
303 304 302 301 301 301 300 298 294 289 288 286 284 281 280 278 275 271 265 259 258 258 261 263 264 267 271 274 276 280 281 281 280 279 281 284 284 285 286 287 288 289 290
308 307 306 304 304 303 302 301 294 292 292 290 288 284 283 282 278 274 269 260 258 255 255 257 260 267 273 274 277 279 281 283 283 282 284 285 285 286 287 288 289 291 293
315 312 309 308 310 308 305 302 298 298 299 298 290 284 283 280 275 276 271 262 253 246 244 244 249 257 261 268 272 277 282 283 282 283 283 285 288 289 289 292 297 299 300
325 324 320 317 318 316 313 310 309 302 302 303 305 300 290 284 275 272 253 242 234 224 226 238 243 252 261 264 271 278 281 283 281 284 286 287 291 297 301 303 306 309 309
331 332 330 330 331 330 331 331 328 327 326 328 331 327 313 289 263 250 229 214 200 202 218 227 232 245 267 274 280 284 286 285 284 286 290 295 298 302 305 309 310 313 315
337 341 344 345 343 342 342 349 352 348 347 346 342 345 360 53 189 188 170 165 164 162 177 199 212 252 289 302 302 298 299 300 300 302 306 309 310 310 311 314 314 317 320
Height
5869 5870 5870 5869 5870 5870 5871 5871 5871 5872 5872 5873 5873 5873 5873 5873 5874 5874 5875 5875 5874 5875 5875 5876 5876 5877 5877 5877 5878 5878 5879 5880 5880 5881 5882 5883 5884 5885 5886 5887 5887 5888 5889
5865 5865 5865 5865 5865 5865 5866 5866 5866 5867 5867 5868 5868 5868 5868 5868 5869 5869 5869 5871 5871 5870 5871 5871 5872 5872 5872 5873 5873 5874 5874 5875 5876 5876 5877 5878 5879 5880 5881 5882 5883 5883 5884
5861 5860 5860 5859 5860 5860 5861 5861 5861 5862 5862 5862 5863 5863 5863 5863 5864 5864 5864 5865 5866 5866 5866 5866 5867 5867 5867 5868 5868 5869 5870 5870 5871 5871 5872 5873 5874 5876 5876 5877 5878 5879 5879
5856 5856 5856 5855 5855 5855 5855 5855 5856 5856 5856 5857 5857 5857 5858 5858 5858 5858 5859 5859 5860 5860 5861 5861 5861 5862 5862 5863 5863 5864 5864 5865 5865 5866 5867 5868 5869 5870 5871 5872 5873 5873 5874
5851 5850 5851 5850 5850 5850 5850 5850 5850 5850 5850 5850 5851 5851 5852 5852 5853 5853 5853 5853 5854 5854 5855 5855 5856 5856 5857 5857 5858 5858 5858 5859 5860 5860 5861 5862 5863 5864 5865 5866 5867 5867 5868
5845 5845 5845 5845 5844 5844 5844 5844 5844 5844 5844 5844 5844 5845 5845 5846 5846 5847 5847 5847 5847 5848 5849 5849 5850 5850 5851 5851 5851 5852 5853 5853 5854 5854 5855 5856 5857 5857 5858 5859 5860 5860 5861
5840 5839 5839 5838 5838 5838 5837 5837 5837 5837 5837 5837 5838 5838 5839 5839 5840 5840 5840 5840 5841 5841 5842 5842 5843 5844 5844 5844 5845 5846 5846 5847 5847 5848 5849 5849 5850 5851 5851 5852 5853 5853 5854
5833 5832 5832 5832 5831 5831 5830 5830 5830 5830 5830 5830 5831 5831 5832 5833 5833 5833 5833 5834 5834 5834 5835 5836 5836 5837 5837 5837 5838 5839 5840 5840 5841 5841 5842 5842 5843 5843 5844 5845 5845 5846 5847
5827 5826 5825 5824 5824 5824 5823 5823 5823 5823 5823 5823 5823 5824 5824 5825 5826 5826 5826 5827 5827 5827 5828 5829 5829 5830 5830 5830 5831 5832 5833 5833 5834 5834 5835 5835 5836 5836 5837 5837 5838 5839 5839
5820 5819 5818 5817 5816 5816 5815 5815 5814 5814 5815 5815 5815 5815 5816 5817 5818 5819 5819 5819 5820 5820 5821 5822 5822 5823 5823 5823 5824 5824 5825 5826 5827 5827 5828 5828 5828 5829 5829 5830 5830 5831 5831
5813 5811 5810 5809 5808 5807 5807 5806 5806 5806 5806 5807 5807 5808 5808 5808 5809 5810 5811 5812 5812 5813 5814 5814 5815 5815 5816 5816 5816 5817 5818 5818 5819 5820 5820 5820 5821 5821 5822 5822 5822 5823 5823
5805 5803 5801 5800 5800 5799 5798 5797 5797 5797 5798 5798 5798 5799 5800 5800 5801 5802 5803 5804 5805 5806 5806 5807 5808 5808 5808 5809 5810 5810 5810 5811 5811 5812 5812 5813 5813 5813 5814 5814 5814 5815 5815
5797 5795 5794 5793 5791 5790 5789 5788 5788 5788 5789 5789 5790 5790 5791 5792 5793 5794 5795 5796 5797 5798 5799 5800 5800 5801 5801 5802 5802 5803 5803 5803 5804 5804 5805 5805 5806 5806 5806 5806 5806 5807 5807
5790 5788 5786 5785 5784 5782 5781 5780 5780 5780 5781 5781 5781 5782 5783 5783 5784 5785 5787 5788 5789 5791 5791 5792 5793 5794 5794 5795 5795 5796 5796 5796 5796 5797 5797 5798 5798 5798 5798 5798 5798 5799 5799
5783 5781 5779 5778 5776 5774 5773 5772 5772 5772 5772 5773 5773 5774 5774 5775 5776 5777 5778 5780 5781 5782 5784 5785 5785 5786 5787 5787 5788 5788 5788 5789 5789 5790 5790 5790 5791 5791 5791 5791 5791 5791 5791
5777 5775 5773 5771 5769 5768 5766 5765 5765 5764 5765 5765 5765 5765 5766 5766 5767 5769 5770 5771 5773 5774 5776 5777 5778 5779 5780 5780 5781 5781 5781 5782 5782 5782 5783 5783 5783 5784 5784 5784 5784 5784 5784
5771 5769 5767 5765 5763 5761 5760 5758 5757 5757 5757 5757 5758 5758 5758 5759 5759 5760 5762 5763 5765 5767 5768 5770 5771 5772 5773 5773 5774 5774 5774 5774 5775 5775 5776 5776 5776 5777 5777 5777 5777 5777 5777
5766 5763 5761 5759 5757 5755 5754 5753 5752 5751 5750 5750 5750 5750 5751 5751 5752 5753 5754 5756 5758 5760 5762 5763 5764 5765 5766 5767 5767 5768 5768 5768 5769 5769 5770 5770 5770 5771 5771 5771 5771 5771 5770
5760 5758 5756 5753 5752 5750 5748 5747 5746 5745 5744 5744 5744 5744 5744 5745 5745 5746 5748 5749 5751 5753 5755 5757 5759 5760 5760 5761 5762 5762 5762 5763 5763 5764 5764 5765 5765 5765 5766 5765 5765 5765 5764
5755 5753 5751 5749 5747 5745 5744 5742 5740 5740 5739 5739 5739 5739 5739 5740 5740 5741 5742 5744 5746 5748 5750 5752 5753 5754 5755 5756 5757 5757 5758 5758 5758 5759 5759 5760 5760 5760 5760 5760 5760 5759 5758
5751 5749 5746 5745 5743 5741 5739 5738 5736 5736 5735 5734 5734 5734 5735 5735 5736 5736 5738 5739 5742 5743 5746 5747 5749 5750 5751 5752 5753 5753 5754 5754 5754 5755 5755 5755 5756 5756 5755 5755 5755 5754 5753
5747 5745 5743 5741 5739 5737 5735 5734 5733 5732 5731 5731 5731 5731 5732 5732 5732 5733 5734 5736 5738 5740 5742 5743 5745 5746 5747 5748 5749 5750 5750 5751 5751 5751 5752 5752 5751 5751 5751 5750 5750 5749 5748
5744 5741 5740 5738 5736 5734 5733 5731 5731 5730 5729 5729 5729 5729 5730 5730 5730 5731 5732 5733 5735 5737 5739 5741 5742 5743 5744 5746 5747 5747 5747 5748 5748 5748 5748 5748 5748 5747 5747 5746 5745 5744 5743
5742 5739 5737 5736 5734 5732 5731 5730 5729 5729 5728 5728 5728 5728 5728 5728 5729 5729 5730 5732 5733 5735 5737 5738 5740 5741 5742 5743 5744 5745 5745 5745 5745 5744 5744 5744 5744 5744 5743 5742 5741 5740 5738
5740 5738 5736 5734 5733 5731 5730 5729 5728 5728 5728 5728 5728 5728 5728 5728 5728 5729 5730 5731 5733 5734 5736 5737 5738 5739 5741 5741 5741 5742 5742 5742 5742 5742 5742 5741 5741 5740 5739 5738 5737 5736 5735
5740 5738 5736 5734 5732 5731 5730 5729 5728 5728 5728 5728 5728 5728 5728 5728 5729 5729 5731 5732 5733 5735 5736 5737 5738 5739 5739 5740 5740 5740 5740 5740 5740 5739 5739 5739 5738 5737 5737 5736 5734 5733 5731